TimeAKST,TemperatureF,Dew PointF,Humidity,Sea Level PressureIn,VisibilityMPH,Wind Direction,Wind SpeedMPH,Gust SpeedMPH,PrecipitationIn,Events,Conditions,WindDirDegrees,DateUTC
12:13 AM,24.8,23.0,93,29.21,6.0,Calm,Calm,-,0.00,Snow,Light Snow,0,2013-02-22 09:13:00
12:22 AM,24.8,21.2,86,29.21,6.0,Calm,Calm,-,0.00,Snow,Light Snow,0,2013-02-22 09:22:00
12:30 AM,24.8,23.0,93,29.21,4.0,Calm,Calm,-,0.00,Snow,Light Snow,0,2013-02-22 09:30:00
12:53 AM,24.1,21.9,91,29.23,6.0,SE,3.5,-,0.00,Snow,Light Snow,130,2013-02-22 09:53:00
1:00 AM,24.8,21.2,86,29.21,9.0,SE,4.6,-,0.00,Snow,Light Snow,130,2013-02-22 10:00:00
1:53 AM,27.0,21.0,78,29.22,10.0,South,10.4,-,0.00,,Overcast,180,2013-02-22 10:53:00
2:28 AM,24.8,23.0,93,29.22,10.0,South,6.9,-,N/A,,Overcast,170,2013-02-22 11:28:00
2:53 AM,25.0,23.0,92,29.23,9.0,SSE,8.1,-,0.00,,Overcast,160,2013-02-22 11:53:00
3:10 AM,24.8,21.2,86,29.22,10.0,South,10.4,-,N/A,,Overcast,170,2013-02-22 12:10:00
3:53 AM,25.0,19.0,78,29.23,10.0,SSE,10.4,-,N/A,,Overcast,160,2013-02-22 12:53:00
4:53 AM,21.9,14.0,72,29.25,10.0,West,4.6,-,N/A,,Overcast,280,2013-02-22 13:53:00
5:53 AM,19.9,14.0,78,29.27,10.0,West,3.5,-,N/A,,Overcast,270,2013-02-22 14:53:00
6:53 AM,19.9,15.1,81,29.28,10.0,SSE,3.5,-,N/A,,Overcast,160,2013-02-22 15:53:00
7:53 AM,19.9,15.1,81,29.31,10.0,Calm,Calm,-,N/A,,Overcast,0,2013-02-22 16:53:00
8:53 AM,19.0,10.9,71,29.32,10.0,Calm,Calm,-,N/A,,Mostly Cloudy,0,2013-02-22 17:53:00
9:53 AM,14.0,10.9,88,29.33,10.0,SE,4.6,-,N/A,,Clear,130,2013-02-22 18:53:00
10:53 AM,19.9,12.9,74,29.35,10.0,Calm,Calm,-,N/A,,Clear,0,2013-02-22 19:53:00
11:53 AM,21.0,14.0,74,29.38,10.0,South,5.8,-,N/A,,Clear,190,2013-02-22 20:53:00
12:53 PM,24.1,12.9,62,29.39,10.0,South,3.5,-,N/A,,Clear,180,2013-02-22 21:53:00
1:53 PM,25.0,14.0,63,29.40,10.0,Calm,Calm,-,N/A,,Clear,0,2013-02-22 22:53:00
2:53 PM,28.0,10.9,49,29.40,10.0,Calm,Calm,-,N/A,,Clear,0,2013-02-22 23:53:00
3:53 PM,26.1,7.0,44,29.41,10.0,West,5.8,-,N/A,,Clear,270,2013-02-23 00:53:00
4:53 PM,23.0,6.1,48,29.42,10.0,SW,5.8,-,N/A,,Clear,230,2013-02-23 01:53:00
5:53 PM,18.0,5.0,57,29.42,10.0,SSW,8.1,-,N/A,,Clear,210,2013-02-23 02:53:00
6:53 PM,19.0,7.0,59,29.43,10.0,Calm,Calm,-,N/A,,Clear,0,2013-02-23 03:53:00
7:53 PM,12.9,3.9,67,29.41,10.0,East,5.8,-,N/A,,Clear,90,2013-02-23 04:53:00
8:53 PM,3.9,-0.0,84,29.40,10.0,NNE,4.6,-,N/A,,Clear,20,2013-02-23 05:53:00
9:53 PM,6.1,1.9,83,29.39,10.0,North,3.5,-,N/A,,Clear,350,2013-02-23 06:53:00
10:53 PM,8.1,3.0,80,29.40,10.0,NE,5.8,-,N/A,,Clear,40,2013-02-23 07:53:00
11:53 PM,8.1,3.9,83,29.37,10.0,North,5.8,-,N/A,,Clear,10,2013-02-23 08:53:00